AirNav   Everest Fuels
 
 1422 users online  

96MO Riverlands Area Heliport
West Alton, Missouri, USA

GOING TO WEST ALTON?


FAA INFORMATION EFFECTIVE 18 JUNE 2020

Location

FAA Identifier: 96MO
Lat/Long: 38-51-47.1740N 090-09-25.3910W
38-51.786233N 090-09.423183W
38.8631039,-90.1570531
(estimated)
Elevation: 434 ft. / 132 m (estimated)
Variation: 02E (1985)
From city: 4 miles E of WEST ALTON, MO
Time zone: UTC -5 (UTC -6 during Standard Time)
Zip code: 63386

Heliport Operations

Heliport use: Private use. Permission required prior to landing
Activation date: 03/1984
Control tower: no
ARTCC: KANSAS CITY CENTER
FSS: SAINT LOUIS FLIGHT SERVICE STATION
Attendance: UNATNDD
Segmented circle: no

Heliport Communications

WX AWOS-3 at ALN (5 nm E): 128.0 (618-259-7231)
WX ASOS at STL (12 nm SW): 125.025 (314-890-4790)
WX ASOS at SET (13 nm W): 118.075 (636-250-4590)
WX ASOS at CPS (18 nm S): PHONE 618-332-0001

Nearby radio navigation aids

VOR radial/distance  VOR name  Freq  Var
TOYr300/13.4TROY VORTAC116.0004E
STLr088/15.2ST LOUIS VORTAC117.4001E
FTZr070/39.4FORISTELL VORTAC110.8005E

 
NDB name  Hdg/Dist  Freq  Var  ID
CIVIC MEMORIAL251/5.026301WCVM -.-. ...- --

Heliport Services

Runway Information

Helipad H1

Dimensions: 100 x 100 ft. / 30 x 30 m
Surface: turf
Latitude: 38-51.786167N
Longitude: 090-09.423167W
Elevation: 434.0 ft.
Traffic pattern: leftleft

Heliport Ownership and Management from official FAA records

Ownership: Publicly-owned
Owner: CORPS OF ENGINEERS
P O BOX 337
WEST ALTON, MO 63386-0337
Phone 573-355-6505
Manager: PATRICK MC GINNIS
PO BOX 337
WEST ALTON, MO 63386
Phone 314-899-0405

Additional Remarks

A52 145' TWR LGTD 150' SW OF PAD.
FOR CD CTC ST LOUIS APCH AT 314-890-1018.

Instrument Procedures

There are no published instrument procedures at 96MO.

Some nearby airports with instrument procedures:

KALN - St Louis Regional Airport (5 nm E)
KSTL - St Louis Lambert International Airport (12 nm SW)
KSET - St Charles County Smartt Airport (13 nm W)
KCPS - St Louis Downtown Airport (18 nm S)
1H0 - Creve Coeur Airport (18 nm SW)
 
Loc | Ops | Rwys | IFR | FBO | Links
Com | Nav | Svcs | Stats | Notes
Area around 96MO (Riverlands Area Heliport)
 
Road maps at: MapQuest Bing Google
 
Aerial photo
No photo
 
Sectional chart

 
Airport distance calculator
Flying to Riverlands Area Heliport? Find the distance to fly.

From to 96MO

Sunrise and sunset
Times for 15-Jul-2020
 Local
(UTC-5)
 Zulu
(UTC)
Morning civil twilight05:1810:18
Sunrise05:4910:49
Sunset20:2401:24
Evening civil twilight20:5501:55

Current date and time
Zulu (UTC)  15-Jul-2020 18:17:16
Local (UTC-5)  15-Jul-2020 13:17:16
 
METAR
KALN 
6nm E 
151750Z 14010G14KT 10SM OVC150 29/25 A2993
KSTL 
12nm SW 
151751Z 16011KT 10SM FEW030 BKN150 OVC250 31/23 A2991 RMK AO2 SLP115 T03060233 10311 20256 56018
KSET 
14nm W 
151754Z AUTO 15009KT 10SM CLR 29/23 A2989 RMK AO2 SLP115 60004 T02940233 10294 20233 56020
KCPS 
18nm S 
151753Z 16008KT 10SM CLR 31/24 A2992 RMK AO2 SLP125 60000 T03060239 10306 20233 55015
TAF
KSTL 
12nm SW 
151750Z 1518/1624 15010KT P6SM OVC250 FM152200 18009KT P6SM -TSRA OVC040CB TEMPO 1522/1524 4SM TSRA BR OVC015CB FM160100 26006KT P6SM -SHRA VCTS BKN070CB FM160300 31005KT P6SM BKN012 FM162000 VRB04KT P6SM SCT200
KCPS 
18nm S 
151750Z 1518/1618 15010G16KT P6SM BKN250 FM152300 18008KT 4SM SHRA BR OVC090 TEMPO 1523/1601 2SM TSRA BR OVC015CB FM160100 19007KT 6SM -SHRA VCTS OVC070CB FM160300 VRB04KT P6SM VCSH BKN030 FM160800 31005KT P6SM BKN015
NOTAMs
Click for the latest NOTAMs
NOTAMs are issued by the DoD/FAA and will open in a separate window not controlled by AirNav.

 

 
 

Would you like to see your business listed on this page?

 If your business provides an interesting product or service to pilots, flight crews, aircraft, or users of the Riverlands Area Heliport, you should consider listing it here.  To start the listing process, click on the button below
 
Add a business
 

Other Pages about Riverlands Area Heliport

Update a link
 
Copyright © AirNav, LLC. All rights reserved. Privacy Policy  Contact